Wind_Speed
2 2 3 3 3 3 3 3 3 4 3 4 3 3 3 4 4 4 4 4 4 5 6 6 7 7 7 8 8 9 8 8 9 9 9 9 9 9 9 10 10 10 10
1 1 2 3 3 3 3 3 4 4 4 4 4 4 4 4 5 5 5 5 6 6 6 7 8 8 8 9 10 9 9 9 9 9 9 10 10 11 10 10 11 11 12
0 0 1 2 3 3 3 3 3 4 4 4 4 5 5 5 5 6 6 5 6 7 7 7 8 8 9 9 10 10 10 10 10 10 10 10 11 11 11 12 12 12 12
1 0 1 2 2 3 3 3 4 3 4 4 5 5 6 7 7 7 7 7 7 8 8 9 9 9 10 10 11 11 11 11 12 12 12 12 12 12 12 12 12 12 12
2 2 2 2 2 3 3 4 4 4 5 5 6 6 7 7 8 8 8 8 9 9 10 10 11 11 11 11 12 12 13 13 13 12 12 12 12 13 13 12 11 12 12
3 3 3 3 3 3 4 5 5 5 5 6 6 7 7 8 8 9 9 10 10 11 11 11 12 12 13 13 13 13 13 14 13 13 13 13 13 13 13 13 12 12 12
4 3 3 3 3 4 4 4 4 5 6 6 7 8 9 9 10 10 11 11 12 12 12 12 13 13 13 13 13 14 14 14 14 14 13 13 13 13 13 13 13 13 13
4 4 3 4 4 4 4 5 5 6 6 7 8 8 9 10 10 11 11 11 12 13 13 12 13 13 13 13 14 14 15 15 15 14 13 14 14 14 14 13 13 14 14
4 4 4 4 4 4 5 5 6 6 6 7 8 9 9 10 11 12 12 12 12 13 14 13 13 14 14 14 14 15 15 15 15 15 15 15 15 15 15 15 15 15 14
4 5 5 5 5 5 5 6 6 6 7 8 8 9 10 10 11 11 12 13 13 14 14 15 15 15 15 15 15 15 15 15 15 15 16 16 17 17 17 17 16 16 15
5 6 6 6 6 6 7 7 7 8 9 9 9 10 10 11 11 12 13 14 14 15 14 14 14 15 16 16 16 15 16 16 16 16 17 17 18 17 17 18 17 17 16
7 7 8 8 8 8 8 9 9 9 10 11 11 11 11 11 12 13 14 14 14 14 14 15 15 15 15 16 16 15 15 16 16 16 17 17 18 17 18 18 18 18 17
9 8 9 9 10 10 10 10 10 11 11 11 12 12 12 13 13 14 14 15 15 15 15 16 16 16 15 16 16 16 16 16 16 16 16 17 16 16 17 18 18 18 18
11 10 10 10 11 11 11 11 11 12 13 13 14 14 14 14 15 15 16 16 16 16 16 16 16 16 17 17 17 17 17 16 16 16 17 17 17 16 16 17 18 18 18
13 13 12 12 11 12 12 13 13 14 15 15 15 15 16 16 17 17 17 18 18 18 17 18 18 18 18 19 19 19 18 17 17 17 18 18 18 18 18 19 19 20 20
14 14 14 13 14 13 13 15 16 16 16 16 16 17 17 17 19 19 19 19 19 19 19 19 19 20 20 20 20 20 19 19 19 19 19 19 19 20 20 20 20 20 20
15 16 17 17 16 15 16 17 17 17 18 18 18 18 19 19 19 19 19 20 20 20 20 20 20 21 21 21 21 21 21 21 21 21 21 21 21 21 21 22 22 22 22
16 18 18 18 17 17 18 19 19 19 18 19 19 19 19 20 19 20 20 21 21 22 21 21 21 22 22 22 23 22 22 23 23 23 22 23 23 23 23 23 23 23 23
17 18 19 19 18 19 20 20 20 20 20 20 19 19 20 20 20 20 20 21 22 22 22 23 23 23 23 23 24 24 24 24 24 24 24 24 24 24 24 24 24 24 24
20 19 20 20 20 21 21 21 21 21 21 20 20 20 21 21 21 21 21 22 22 23 23 23 23 24 24 24 25 25 25 25 25 26 26 25 25 26 26 26 26 26 26
21 21 21 22 22 21 21 21 21 21 22 21 22 22 23 23 23 23 23 23 23 23 24 24 24 24 24 25 26 26 26 26 26 27 27 27 27 27 28 28 28 27 27
22 22 22 22 21 22 22 21 21 21 22 23 23 24 24 23 24 24 24 24 24 25 25 25 25 25 25 26 27 27 27 28 27 27 27 28 28 28 29 29 29 29 29
24 23 23 23 23 22 21 21 22 22 23 24 24 24 24 25 26 26 25 25 26 26 26 26 26 25 25 26 27 27 27 28 28 29 29 29 30 30 29 29 30 30 30
24 24 23 23 23 23 23 23 22 23 24 25 25 26 26 27 27 26 26 26 26 27 27 27 27 26 26 26 27 27 28 28 28 29 29 30 30 30 30 30 30 30 30
25 25 25 25 25 25 24 24 24 24 24 25 26 26 26 26 26 26 27 27 27 27 27 27 27 27 27 27 28 28 29 29 29 29 30 30 30 31 30 30 30 30 30
27 27 27 27 26 26 25 25 26 26 26 27 27 27 26 27 26 27 27 27 27 27 27 27 27 28 28 28 29 29 29 30 30 30 30 30 30 30 30 30 30 30 30
Wind_Direction
147 152 153 171 185 206 226 232 241 251 256 252 249 252 264 279 282 287 286 285 280 285 281 287 293 293 291 289 297 293 285 281 276 277 273 272 275 274 272 273 271 261 260
138 155 174 189 196 217 238 246 247 253 261 258 255 261 270 282 284 288 289 285 288 286 278 282 287 287 290 294 296 291 284 280 278 281 276 271 269 270 274 274 271 269 267
84 152 195 206 214 229 248 248 248 256 259 264 267 271 272 276 287 291 290 289 290 288 283 285 289 290 293 294 295 291 287 285 282 280 278 274 274 274 273 272 271 274 271
333 313 256 247 249 248 248 253 256 257 263 272 275 277 279 281 289 294 297 297 296 294 289 288 290 292 293 291 290 290 289 286 284 282 280 278 278 277 276 274 272 274 272
298 306 307 287 261 257 259 263 263 264 267 272 278 282 285 286 291 295 296 295 294 292 290 291 293 292 292 291 290 289 287 286 284 284 282 281 280 279 277 278 278 276 274
332 314 309 299 279 270 269 274 270 264 270 277 281 282 286 290 293 297 297 294 293 293 291 291 293 292 291 292 292 291 290 286 284 281 280 280 282 280 278 277 282 284 279
348 332 314 313 303 287 279 279 278 276 277 280 284 284 286 290 293 296 296 295 295 295 294 294 294 293 292 293 297 295 293 289 283 281 280 279 280 281 279 279 281 282 280
353 342 325 316 306 299 292 286 286 285 282 281 283 286 289 292 294 295 296 293 294 296 297 297 297 295 293 292 294 295 292 290 284 280 278 278 280 281 277 279 281 280 279
344 343 334 326 317 300 290 284 286 288 287 288 285 286 289 291 292 295 296 295 295 297 296 295 295 295 296 296 296 295 294 293 287 281 279 278 278 279 278 278 277 278 277
334 335 326 319 314 306 297 293 289 289 290 291 287 287 287 288 292 293 295 297 296 298 298 297 297 294 293 294 297 296 294 291 289 286 282 281 280 279 278 277 278 277 277
317 322 319 312 308 303 296 296 292 286 289 293 292 293 289 288 293 296 297 297 295 297 299 299 298 296 294 293 294 294 293 291 289 288 285 285 284 280 277 276 276 278 278
315 315 314 311 307 302 296 292 290 289 290 291 291 293 293 293 295 296 296 297 295 296 300 300 299 299 298 296 294 294 295 292 288 285 285 286 284 282 279 276 275 276 277
307 304 303 303 302 301 296 293 292 292 292 292 293 293 291 291 292 294 296 296 294 296 299 300 297 297 299 299 297 295 294 293 290 286 287 288 286 285 282 278 274 274 276
304 301 299 297 297 299 296 294 293 292 293 294 296 295 294 292 291 293 295 295 295 295 296 296 295 296 297 297 296 294 294 294 292 290 288 288 287 286 285 280 276 275 276
301 302 299 296 295 295 295 293 291 292 293 294 295 296 295 293 293 293 294 293 294 295 296 294 292 293 293 293 294 293 294 293 293 294 290 288 287 288 287 284 281 280 281
299 301 299 295 293 292 294 293 291 290 292 293 293 294 293 293 294 292 290 291 292 294 295 294 292 291 291 292 292 292 292 292 292 292 290 288 288 289 286 286 285 285 283
298 300 299 294 293 293 293 293 292 291 291 291 292 292 291 292 293 292 289 290 291 291 291 291 292 291 289 288 290 291 290 291 291 291 290 289 288 286 286 286 285 284 283
300 302 301 300 294 291 293 293 291 293 291 291 292 292 292 292 293 291 288 288 289 289 289 290 291 291 292 290 289 289 290 291 291 290 289 289 288 287 287 286 285 285 283
302 304 302 301 297 294 294 293 291 294 294 291 292 294 294 294 295 294 290 289 289 289 290 290 290 290 290 291 292 289 290 289 288 288 287 288 289 289 287 287 285 284 283
301 302 301 303 298 293 293 295 294 292 293 292 292 293 294 294 294 293 292 291 291 290 289 289 290 290 289 290 290 289 289 288 287 288 288 288 288 289 288 287 286 284 282
299 302 302 301 300 298 296 297 296 292 291 291 292 292 293 295 294 292 291 291 291 290 290 290 289 291 290 290 290 290 289 288 288 287 287 289 289 288 288 288 287 284 282
297 299 301 304 299 298 299 298 295 294 293 292 291 292 293 294 294 293 292 291 290 289 290 290 289 290 290 290 291 291 290 289 288 287 288 288 288 288 287 287 286 284 282
294 296 298 299 300 300 299 297 295 293 293 294 293 292 293 294 294 292 291 291 290 290 289 289 289 290 291 291 291 291 290 290 290 290 289 288 288 287 287 287 286 285 282
292 293 294 296 297 298 299 297 296 294 294 294 294 292 292 294 295 293 292 291 289 289 288 288 288 288 290 291 292 293 292 292 292 291 289 288 287 287 287 287 286 285 284
289 290 292 293 293 294 295 296 294 294 295 295 295 294 294 293 292 292 291 291 290 288 287 287 288 288 288 290 292 292 293 294 293 292 290 288 287 286 285 285 285 285 283
287 287 289 289 292 292 293 295 296 294 295 296 296 295 295 294 293 292 289 289 291 291 288 288 288 289 289 290 290 292 293 293 293 292 291 290 288 286 285 284 285 284 283
Height
5899 5898 5898 5898 5898 5899 5899 5899 5900 5900 5900 5901 5901 5901 5901 5900 5900 5899 5899 5899 5899 5898 5898 5898 5897 5897 5896 5896 5895 5894 5893 5892 5892 5892 5891 5891 5891 5891 5891 5891 5891 5891 5891
5899 5899 5898 5898 5898 5898 5899 5899 5899 5900 5900 5900 5900 5900 5900 5900 5899 5899 5899 5898 5898 5897 5897 5897 5896 5896 5895 5894 5894 5893 5892 5891 5891 5890 5890 5890 5889 5889 5889 5889 5889 5889 5889
5899 5898 5898 5898 5898 5898 5898 5899 5899 5899 5899 5899 5899 5900 5900 5899 5899 5898 5898 5897 5897 5896 5896 5896 5895 5894 5893 5893 5892 5891 5890 5889 5889 5888 5888 5888 5887 5887 5887 5887 5887 5886 5886
5900 5899 5898 5898 5898 5898 5898 5898 5898 5898 5898 5899 5899 5899 5899 5898 5898 5898 5897 5896 5896 5895 5894 5894 5893 5893 5892 5891 5890 5889 5888 5887 5887 5886 5886 5885 5885 5885 5884 5884 5884 5883 5883
5900 5899 5899 5898 5897 5897 5898 5898 5898 5898 5898 5898 5898 5898 5897 5897 5897 5897 5896 5895 5894 5894 5893 5892 5891 5891 5890 5889 5888 5887 5886 5885 5884 5883 5883 5883 5882 5882 5881 5881 5880 5880 5880
5900 5900 5899 5898 5897 5897 5897 5897 5897 5897 5897 5897 5897 5897 5896 5896 5896 5895 5894 5894 5893 5892 5891 5890 5889 5888 5887 5886 5885 5884 5883 5882 5881 5881 5880 5880 5879 5879 5878 5878 5878 5877 5877
5900 5900 5899 5898 5897 5897 5897 5896 5896 5896 5896 5896 5896 5896 5895 5894 5894 5893 5892 5892 5891 5890 5889 5888 5887 5886 5885 5884 5882 5881 5880 5879 5878 5877 5877 5877 5876 5876 5875 5875 5875 5874 5874
5900 5899 5899 5898 5897 5897 5896 5896 5895 5895 5895 5895 5895 5894 5894 5893 5892 5891 5890 5890 5889 5888 5887 5885 5884 5883 5882 5881 5879 5878 5877 5875 5874 5874 5873 5873 5873 5872 5872 5872 5871 5871 5871
5900 5899 5898 5898 5897 5896 5896 5895 5894 5894 5894 5893 5893 5892 5892 5891 5890 5889 5888 5887 5886 5885 5884 5883 5881 5880 5879 5878 5876 5875 5873 5872 5871 5870 5870 5870 5869 5869 5868 5868 5868 5867 5867
5900 5899 5898 5897 5896 5895 5894 5894 5893 5893 5892 5891 5891 5890 5889 5889 5888 5887 5886 5884 5883 5882 5881 5880 5878 5877 5876 5874 5873 5872 5870 5869 5868 5867 5867 5866 5866 5865 5864 5864 5864 5863 5863
5899 5898 5897 5896 5895 5894 5893 5892 5892 5891 5891 5890 5889 5888 5887 5886 5885 5884 5883 5882 5881 5879 5878 5876 5875 5874 5872 5871 5870 5868 5867 5866 5865 5864 5863 5862 5861 5860 5859 5859 5859 5859 5859
5897 5896 5896 5895 5894 5893 5892 5891 5890 5889 5889 5888 5887 5886 5885 5884 5883 5881 5880 5879 5878 5876 5875 5873 5872 5870 5869 5867 5866 5865 5863 5862 5861 5860 5859 5858 5856 5855 5854 5854 5855 5854 5854
5896 5895 5893 5893 5892 5890 5889 5889 5888 5887 5886 5885 5884 5883 5882 5881 5880 5878 5877 5876 5874 5873 5871 5870 5868 5867 5865 5864 5863 5861 5860 5859 5857 5856 5855 5853 5852 5851 5850 5849 5849 5849 5849
5894 5893 5891 5890 5889 5888 5887 5886 5885 5884 5883 5882 5881 5880 5879 5878 5876 5875 5874 5872 5871 5869 5868 5866 5864 5863 5862 5860 5859 5858 5856 5855 5853 5852 5851 5850 5849 5848 5846 5845 5845 5844 5844
5892 5891 5889 5888 5886 5885 5884 5883 5882 5881 5880 5879 5878 5876 5875 5874 5873 5871 5870 5869 5868 5866 5864 5862 5860 5859 5858 5856 5854 5853 5852 5851 5849 5848 5847 5845 5844 5843 5842 5841 5840 5840 5839
5889 5888 5886 5885 5883 5882 5881 5879 5878 5877 5876 5875 5874 5872 5871 5870 5868 5867 5865 5864 5863 5861 5859 5858 5856 5854 5853 5852 5850 5849 5847 5846 5845 5843 5842 5841 5840 5838 5837 5836 5836 5835 5834
5886 5885 5883 5881 5880 5878 5877 5875 5874 5873 5871 5870 5869 5868 5866 5865 5864 5862 5860 5859 5858 5856 5854 5853 5851 5849 5848 5847 5845 5844 5842 5841 5840 5838 5837 5836 5834 5833 5832 5831 5830 5829 5829
5883 5881 5879 5877 5875 5874 5873 5871 5869 5868 5866 5865 5864 5863 5861 5860 5858 5857 5855 5854 5852 5851 5849 5847 5846 5844 5842 5841 5840 5838 5837 5835 5834 5833 5831 5830 5829 5827 5826 5825 5824 5823 5823
5879 5877 5875 5873 5871 5870 5868 5866 5864 5863 5861 5860 5859 5858 5856 5855 5853 5851 5849 5848 5846 5845 5843 5842 5840 5838 5837 5835 5833 5832 5830 5829 5828 5826 5825 5824 5822 5821 5820 5819 5818 5817 5816
5875 5873 5871 5869 5867 5865 5863 5861 5859 5857 5856 5854 5853 5852 5851 5849 5847 5845 5843 5842 5840 5839 5837 5835 5834 5832 5831 5829 5827 5825 5824 5822 5821 5820 5818 5817 5815 5814 5813 5812 5810 5809 5808
5870 5869 5867 5865 5863 5860 5858 5856 5854 5852 5850 5849 5847 5846 5844 5843 5841 5839 5837 5836 5834 5832 5830 5829 5827 5826 5824 5822 5820 5818 5817 5815 5814 5812 5811 5809 5808 5807 5805 5804 5803 5802 5801
5865 5864 5862 5859 5857 5855 5853 5851 5849 5847 5845 5843 5841 5840 5838 5837 5835 5833 5831 5829 5827 5826 5824 5823 5821 5819 5817 5815 5813 5812 5810 5808 5807 5805 5803 5802 5800 5799 5797 5796 5795 5794 5793
5860 5858 5857 5855 5852 5850 5848 5846 5844 5842 5840 5838 5836 5834 5832 5830 5828 5826 5824 5822 5820 5819 5817 5816 5814 5812 5810 5808 5806 5804 5802 5801 5799 5797 5796 5794 5793 5791 5789 5788 5787 5785 5784
5854 5853 5851 5849 5847 5845 5843 5841 5838 5836 5834 5832 5829 5827 5825 5822 5820 5818 5816 5814 5813 5812 5810 5808 5807 5805 5803 5801 5799 5797 5795 5793 5791 5789 5787 5786 5784 5783 5781 5780 5778 5777 5775
5848 5846 5845 5843 5841 5839 5837 5835 5833 5830 5827 5825 5823 5820 5818 5815 5813 5810 5808 5807 5805 5804 5802 5800 5799 5797 5795 5793 5791 5790 5788 5785 5783 5781 5779 5777 5776 5774 5773 5771 5769 5768 5767
5841 5840 5838 5837 5835 5833 5831 5829 5826 5824 5822 5819 5816 5814 5811 5809 5806 5803 5800 5799 5798 5796 5795 5793 5791 5790 5788 5786 5784 5782 5780 5778 5775 5773 5771 5769 5767 5765 5764 5762 5760 5759 5757